DELTA 1 DEB, 21450

Orbit data source: Space-Track

DELTA 1 DEB, 21450 is space debris in SSO originally from a launch on Thu, 12 Jun 1975 UTC launched from the Air Force Western Test Range (AFWTR). Debris objects in space refer to the collection of defunct objects orbiting the Earth. Examples of debris include non-operational satellites, rocket bodies, and fragments generated from explosions, collisions, or faulty payload assembly.

Loading next visibility...
Identifier
21450, 1975-052EJ
Orbit
SSO
Country
Flag of USUS
Related business
Manufacturer
Unknown
Mission
Spacecraft
Bus & Motor
Unknown
Mass
Unknown
Launch date (UTC)
1975-06-12 (50 years ago)
Launch vehicle
Unknown
Launch site
Air Force Western Test Range (AFWTR)
Object type
Payload
Rocket body
Debris
Shape & HBR
Unknown shape, 0.1 m
Radar Cross Section
Small (<0.1 m²)

Expand to show TLE details & history
Last TLE update: 2 days ago

TLE from 2 days ago
0 DELTA 1 DEB
1 21450U 75052EJ  25305.98578626  .00000171  00000-0  41667-3 0  9993
2 21450  99.8692 195.1492 0059308  78.6885 299.6863 13.35290201679095
Epoch: 2025-11-01T23:39Z
TLE epoch observation values (Epoch: 2025-11-01T23:39:31.932Z)
Latitude
17.50138°
Longitude
155.62953°
Altitude
1,107.208 km
Speed
7.311 km/s
True Right ascension
12h 48m 04s
True Declination
17° 24' 27"
Sunlit
Object was in daylight at epoch
Visualization orbit readout
Latitude
Unknown
Longitude
Unknown
Altitude
Unknown
Speed
Unknown
Apparent Right ascension
Unknown
Apparent Declination
Unknown
Sunlit
N/A
Visualization observer readout
Local Sidereal Time
16:29:32
Azimuth
Unknown
Elevation
Unknown
Doppler factor
Unknown
Orbital elements
Apogee altitude
1,168.7 km
Perigee altitude
1,079.71 km
Semi-major axis
7,502.342 km
Eccentricity
0.00593
Inclination
99.8692°
RAAN
195.1492°
Arg. of periapsis
78.6885°
True anomaly
299.09372°
Mean anomaly
299.6863°
Eccentric anomaly
299.39022°
Mean motion
3.34001 °/min
Orbital period
107.78 mins
BSTAR
0.00041667
Loading maneuver chart data...
Computing Atmospheric mass density...
Loading historical data...
Loading historical data...
Loading historical data...
Loading historical data...
Loading historical data...
Loading historical data...
Loading historical data...

Documentation

Showing up to 5 results
|